QPF
0.00 0.00 0.00 0.01 0.01 0.01 0.01 0.01 0.00 0.00 0.00 0.00 0.00 0.00 0.02 0.02 0.01 0.00 0.00 0.00 0.00 0.00 0.00 0.01 0.01 0.01 0.01 0.02 0.01 0.00 0.00 0.00 0.00 0.00 0.00 0.00 0.00 0.00 0.00 0.00 0.00 0.00 0.00
0.00 0.00 0.00 0.00 0.01 0.01 0.02 0.01 0.00 0.00 0.00 0.00 0.00 0.00 0.01 0.01 0.00 0.00 0.00 0.00 0.00 0.00 0.00 0.01 0.01 0.01 0.01 0.01 0.00 0.00 0.00 0.00 0.00 0.00 0.00 0.00 0.00 0.00 0.00 0.00 0.00 0.00 0.00
0.00 0.00 0.00 0.00 0.01 0.01 0.02 0.02 0.00 0.00 0.00 0.00 0.00 0.00 0.00 0.00 0.00 0.00 0.00 0.00 0.00 0.00 0.00 0.00 0.00 0.00 0.00 0.00 0.00 0.00 0.00 0.00 0.00 0.00 0.00 0.00 0.00 0.00 0.00 0.00 0.00 0.00 0.00
0.00 0.00 0.00 0.00 0.01 0.01 0.02 0.01 0.00 0.00 0.00 0.00 0.00 0.00 0.00 0.00 0.00 0.00 0.00 0.00 0.00 0.00 0.00 0.00 0.00 0.00 0.00 0.00 0.00 0.00 0.00 0.00 0.00 0.00 0.00 0.00 0.00 0.00 0.00 0.00 0.00 0.00 0.01
0.00 0.00 0.00 0.00 0.01 0.01 0.01 0.01 0.00 0.00 0.00 0.00 0.00 0.00 0.00 0.02 0.01 0.01 0.00 0.00 0.00 0.00 0.00 0.00 0.00 0.00 0.00 0.00 0.00 0.00 0.00 0.00 0.00 0.00 0.00 0.00 0.00 0.00 0.00 0.00 0.00 0.00 0.00
0.00 0.00 0.00 0.00 0.00 0.01 0.01 0.01 0.00 0.00 0.00 0.00 0.00 0.00 0.00 0.02 0.04 0.02 0.00 0.00 0.00 0.00 0.00 0.00 0.00 0.00 0.00 0.00 0.00 0.00 0.00 0.00 0.00 0.00 0.00 0.00 0.00 0.00 0.00 0.00 0.00 0.00 0.00
0.00 0.00 0.00 0.00 0.00 0.00 0.01 0.01 0.00 0.00 0.00 0.00 0.00 0.00 0.00 0.02 0.04 0.03 0.01 0.00 0.00 0.00 0.00 0.00 0.00 0.00 0.00 0.00 0.00 0.00 0.00 0.00 0.00 0.00 0.00 0.00 0.00 0.00 0.00 0.00 0.00 0.00 0.00
0.00 0.00 0.00 0.00 0.00 0.00 0.01 0.01 0.00 0.00 0.00 0.00 0.00 0.00 0.00 0.01 0.02 0.03 0.01 0.00 0.00 0.00 0.00 0.00 0.00 0.00 0.00 0.00 0.00 0.00 0.00 0.00 0.00 0.00 0.00 0.00 0.00 0.00 0.00 0.00 0.00 0.00 0.00
0.00 0.00 0.00 0.00 0.00 0.00 0.00 0.00 0.00 0.00 0.00 0.00 0.00 0.00 0.00 0.00 0.00 0.01 0.01 0.00 0.00 0.00 0.00 0.00 0.00 0.00 0.00 0.00 0.00 0.00 0.00 0.00 0.00 0.00 0.00 0.00 0.00 0.00 0.00 0.00 0.00 0.00 0.01
0.00 0.00 0.00 0.00 0.00 0.00 0.00 0.00 0.00 0.00 0.00 0.00 0.00 0.00 0.00 0.00 0.00 0.00 0.00 0.00 0.00 0.00 0.00 0.00 0.00 0.00 0.00 0.00 0.00 0.00 0.00 0.00 0.00 0.00 0.00 0.00 0.00 0.00 0.00 0.00 0.00 0.00 0.00
0.00 0.00 0.00 0.00 0.00 0.00 0.00 0.00 0.00 0.00 0.00 0.00 0.00 0.00 0.00 0.00 0.00 0.00 0.00 0.00 0.00 0.00 0.00 0.00 0.00 0.00 0.00 0.00 0.00 0.00 0.00 0.00 0.00 0.00 0.00 0.00 0.00 0.00 0.00 0.00 0.00 0.00 0.00
0.00 0.00 0.00 0.00 0.00 0.00 0.00 0.00 0.00 0.00 0.00 0.00 0.00 0.00 0.00 0.00 0.00 0.00 0.00 0.00 0.00 0.00 0.00 0.00 0.00 0.00 0.00 0.00 0.00 0.00 0.00 0.00 0.00 0.00 0.00 0.00 0.00 0.00 0.00 0.00 0.00 0.00 0.00
0.00 0.00 0.00 0.00 0.00 0.00 0.00 0.00 0.00 0.00 0.00 0.00 0.00 0.00 0.00 0.00 0.00 0.00 0.00 0.00 0.00 0.00 0.00 0.00 0.00 0.00 0.00 0.00 0.00 0.00 0.00 0.00 0.00 0.00 0.00 0.00 0.00 0.00 0.00 0.00 0.00 0.00 0.00
0.00 0.00 0.00 0.00 0.00 0.00 0.00 0.00 0.00 0.00 0.00 0.00 0.00 0.00 0.00 0.00 0.00 0.00 0.00 0.00 0.00 0.00 0.00 0.00 0.00 0.00 0.00 0.00 0.00 0.00 0.00 0.00 0.00 0.00 0.00 0.00 0.00 0.00 0.00 0.00 0.00 0.00 0.00
0.00 0.00 0.00 0.00 0.00 0.00 0.00 0.00 0.00 0.00 0.00 0.00 0.00 0.00 0.00 0.00 0.00 0.00 0.00 0.00 0.00 0.00 0.00 0.00 0.00 0.00 0.00 0.00 0.00 0.00 0.00 0.00 0.00 0.00 0.00 0.00 0.00 0.00 0.00 0.00 0.00 0.00 0.01
0.00 0.00 0.00 0.00 0.00 0.00 0.00 0.00 0.00 0.00 0.00 0.00 0.00 0.00 0.00 0.00 0.00 0.00 0.00 0.00 0.00 0.00 0.00 0.00 0.00 0.00 0.00 0.00 0.00 0.00 0.00 0.00 0.00 0.00 0.00 0.00 0.00 0.00 0.00 0.00 0.00 0.00 0.01
0.00 0.00 0.00 0.00 0.00 0.00 0.00 0.00 0.00 0.00 0.00 0.00 0.00 0.00 0.00 0.00 0.00 0.00 0.00 0.00 0.00 0.00 0.00 0.00 0.00 0.00 0.00 0.00 0.00 0.00 0.00 0.00 0.00 0.00 0.00 0.00 0.00 0.00 0.00 0.00 0.00 0.00 0.00
0.00 0.00 0.00 0.00 0.00 0.00 0.00 0.00 0.00 0.00 0.00 0.00 0.00 0.00 0.00 0.00 0.00 0.00 0.00 0.00 0.00 0.00 0.00 0.00 0.00 0.00 0.00 0.00 0.00 0.00 0.00 0.00 0.00 0.00 0.00 0.00 0.00 0.00 0.00 0.00 0.00 0.00 0.00
0.00 0.00 0.00 0.00 0.00 0.00 0.00 0.00 0.00 0.00 0.00 0.00 0.00 0.00 0.00 0.00 0.00 0.00 0.00 0.00 0.00 0.00 0.00 0.00 0.00 0.00 0.00 0.00 0.00 0.00 0.00 0.00 0.00 0.00 0.00 0.00 0.00 0.00 0.00 0.00 0.00 0.00 0.00
0.00 0.00 0.00 0.00 0.00 0.00 0.00 0.00 0.00 0.00 0.00 0.00 0.00 0.00 0.00 0.00 0.00 0.00 0.00 0.00 0.00 0.00 0.00 0.00 0.00 0.00 0.00 0.00 0.00 0.00 0.00 0.00 0.00 0.00 0.00 0.00 0.00 0.00 0.00 0.00 0.00 0.00 0.00
0.00 0.00 0.00 0.00 0.00 0.00 0.00 0.00 0.00 0.00 0.00 0.00 0.00 0.00 0.00 0.00 0.00 0.00 0.00 0.00 0.00 0.00 0.00 0.00 0.00 0.00 0.00 0.00 0.00 0.00 0.00 0.00 0.00 0.00 0.00 0.00 0.00 0.00 0.00 0.00 0.00 0.00 0.01
0.00 0.00 0.00 0.00 0.00 0.00 0.00 0.00 0.00 0.00 0.00 0.00 0.00 0.00 0.00 0.00 0.00 0.00 0.00 0.00 0.00 0.00 0.00 0.00 0.00 0.00 0.00 0.00 0.00 0.00 0.00 0.00 0.00 0.00 0.00 0.00 0.00 0.00 0.00 0.00 0.00 0.00 0.01
0.00 0.00 0.00 0.00 0.00 0.00 0.00 0.00 0.00 0.00 0.00 0.00 0.00 0.00 0.00 0.00 0.00 0.00 0.00 0.00 0.00 0.00 0.00 0.00 0.00 0.00 0.00 0.00 0.00 0.00 0.00 0.00 0.00 0.00 0.00 0.00 0.00 0.00 0.00 0.00 0.00 0.00 0.00
0.00 0.00 0.00 0.00 0.00 0.00 0.00 0.00 0.00 0.00 0.00 0.00 0.00 0.00 0.00 0.00 0.00 0.00 0.00 0.00 0.00 0.00 0.00 0.00 0.00 0.00 0.00 0.00 0.00 0.00 0.00 0.00 0.00 0.00 0.00 0.00 0.00 0.00 0.00 0.00 0.00 0.00 0.00
0.00 0.00 0.00 0.00 0.00 0.00 0.00 0.00 0.00 0.00 0.00 0.00 0.00 0.00 0.00 0.00 0.00 0.00 0.00 0.00 0.00 0.00 0.00 0.00 0.00 0.00 0.00 0.00 0.00 0.00 0.00 0.00 0.00 0.00 0.00 0.00 0.00 0.00 0.00 0.00 0.00 0.00 0.00
0.00 0.00 0.00 0.00 0.00 0.00 0.00 0.00 0.00 0.00 0.00 0.00 0.00 0.00 0.00 0.00 0.00 0.00 0.00 0.00 0.00 0.00 0.00 0.00 0.00 0.00 0.00 0.00 0.00 0.00 0.00 0.00 0.00 0.00 0.00 0.00 0.00 0.00 0.00 0.00 0.00 0.00 0.00
MSLP
1009.49 1009.50 1009.63 1009.88 1010.25 1010.69 1011.15 1011.55 1011.86 1012.05 1012.14 1012.15 1012.14 1012.17 1012.27 1012.44 1012.68 1012.95 1013.21 1013.41 1013.52 1013.55 1013.52 1013.45 1013.37 1013.33 1013.34 1013.40 1013.49 1013.61 1013.72 1013.81 1013.87 1013.90 1013.90 1013.89 1013.88 1013.86 1013.85 1013.85 1013.85 1013.86 1013.87
1009.38 1009.44 1009.62 1009.94 1010.37 1010.86 1011.33 1011.74 1012.03 1012.20 1012.26 1012.25 1012.24 1012.27 1012.38 1012.57 1012.82 1013.10 1013.36 1013.56 1013.68 1013.72 1013.70 1013.64 1013.58 1013.55 1013.56 1013.61 1013.68 1013.77 1013.84 1013.89 1013.92 1013.92 1013.90 1013.87 1013.83 1013.80 1013.78 1013.76 1013.75 1013.75 1013.77
1009.18 1009.28 1009.52 1009.91 1010.40 1010.93 1011.44 1011.85 1012.14 1012.30 1012.35 1012.34 1012.33 1012.36 1012.48 1012.67 1012.92 1013.19 1013.44 1013.63 1013.75 1013.80 1013.79 1013.76 1013.73 1013.72 1013.74 1013.78 1013.84 1013.89 1013.92 1013.93 1013.92 1013.88 1013.84 1013.78 1013.73 1013.68 1013.64 1013.61 1013.59 1013.60 1013.63
1008.90 1009.04 1009.35 1009.80 1010.34 1010.92 1011.46 1011.89 1012.18 1012.34 1012.39 1012.39 1012.39 1012.44 1012.55 1012.74 1012.98 1013.23 1013.45 1013.63 1013.74 1013.79 1013.80 1013.80 1013.80 1013.82 1013.86 1013.90 1013.94 1013.96 1013.96 1013.92 1013.87 1013.80 1013.72 1013.64 1013.57 1013.51 1013.46 1013.42 1013.40 1013.41 1013.45
1008.60 1008.79 1009.15 1009.66 1010.25 1010.86 1011.42 1011.86 1012.16 1012.33 1012.40 1012.41 1012.43 1012.49 1012.61 1012.79 1013.00 1013.22 1013.41 1013.56 1013.66 1013.71 1013.74 1013.77 1013.80 1013.85 1013.90 1013.95 1013.97 1013.97 1013.93 1013.86 1013.76 1013.66 1013.56 1013.46 1013.38 1013.31 1013.25 1013.21 1013.19 1013.20 1013.24
1008.36 1008.59 1008.99 1009.54 1010.16 1010.79 1011.35 1011.79 1012.10 1012.27 1012.36 1012.39 1012.43 1012.51 1012.64 1012.81 1013.01 1013.19 1013.35 1013.47 1013.54 1013.59 1013.63 1013.68 1013.73 1013.80 1013.87 1013.92 1013.93 1013.90 1013.83 1013.73 1013.60 1013.48 1013.35 1013.25 1013.16 1013.08 1013.02 1012.98 1012.95 1012.96 1013.00
1008.23 1008.49 1008.92 1009.48 1010.10 1010.72 1011.27 1011.70 1012.00 1012.18 1012.28 1012.34 1012.41 1012.51 1012.66 1012.82 1013.00 1013.15 1013.27 1013.36 1013.41 1013.44 1013.48 1013.53 1013.60 1013.68 1013.75 1013.80 1013.80 1013.75 1013.65 1013.52 1013.38 1013.24 1013.11 1013.00 1012.91 1012.84 1012.78 1012.73 1012.71 1012.70 1012.73
1008.20 1008.49 1008.93 1009.49 1010.09 1010.68 1011.19 1011.59 1011.86 1012.04 1012.15 1012.25 1012.35 1012.48 1012.64 1012.81 1012.97 1013.10 1013.19 1013.24 1013.26 1013.28 1013.30 1013.35 1013.42 1013.50 1013.56 1013.59 1013.58 1013.51 1013.40 1013.25 1013.10 1012.95 1012.82 1012.72 1012.64 1012.57 1012.52 1012.47 1012.44 1012.43 1012.45
1008.26 1008.55 1008.99 1009.52 1010.09 1010.62 1011.08 1011.43 1011.68 1011.85 1011.98 1012.10 1012.24 1012.40 1012.58 1012.76 1012.92 1013.03 1013.09 1013.11 1013.11 1013.10 1013.11 1013.15 1013.20 1013.26 1013.31 1013.32 1013.28 1013.20 1013.07 1012.91 1012.75 1012.61 1012.49 1012.39 1012.32 1012.27 1012.22 1012.18 1012.14 1012.12 1012.12
1008.32 1008.62 1009.04 1009.53 1010.04 1010.52 1010.91 1011.22 1011.44 1011.60 1011.74 1011.89 1012.06 1012.25 1012.45 1012.65 1012.80 1012.91 1012.96 1012.96 1012.94 1012.91 1012.90 1012.92 1012.95 1012.99 1013.01 1012.99 1012.93 1012.83 1012.68 1012.52 1012.36 1012.22 1012.10 1012.02 1011.96 1011.91 1011.87 1011.83 1011.80 1011.77 1011.75
1008.33 1008.62 1009.01 1009.45 1009.90 1010.31 1010.65 1010.92 1011.12 1011.28 1011.44 1011.61 1011.81 1012.03 1012.25 1012.46 1012.62 1012.73 1012.77 1012.77 1012.74 1012.70 1012.68 1012.67 1012.68 1012.69 1012.68 1012.64 1012.55 1012.42 1012.26 1012.09 1011.92 1011.78 1011.67 1011.59 1011.53 1011.49 1011.46 1011.42 1011.38 1011.35 1011.31
1008.23 1008.50 1008.85 1009.25 1009.64 1009.99 1010.29 1010.53 1010.72 1010.89 1011.07 1011.27 1011.50 1011.75 1011.99 1012.21 1012.38 1012.48 1012.53 1012.53 1012.51 1012.47 1012.44 1012.42 1012.42 1012.40 1012.36 1012.29 1012.17 1012.01 1011.83 1011.64 1011.46 1011.31 1011.19 1011.11 1011.05 1011.01 1010.97 1010.93 1010.89 1010.84 1010.80
1008.02 1008.26 1008.57 1008.92 1009.26 1009.57 1009.84 1010.07 1010.28 1010.48 1010.69 1010.92 1011.18 1011.44 1011.70 1011.92 1012.10 1012.21 1012.27 1012.29 1012.27 1012.25 1012.22 1012.20 1012.17 1012.13 1012.06 1011.96 1011.81 1011.62 1011.41 1011.20 1011.00 1010.83 1010.70 1010.60 1010.53 1010.47 1010.42 1010.38 1010.32 1010.27 1010.21
1007.73 1007.94 1008.21 1008.51 1008.81 1009.10 1009.37 1009.62 1009.86 1010.10 1010.35 1010.62 1010.90 1011.18 1011.44 1011.66 1011.83 1011.96 1012.03 1012.06 1012.07 1012.07 1012.05 1012.03 1011.99 1011.92 1011.82 1011.68 1011.50 1011.28 1011.04 1010.80 1010.58 1010.38 1010.21 1010.08 1009.98 1009.90 1009.84 1009.77 1009.71 1009.64 1009.56
1007.46 1007.63 1007.85 1008.10 1008.38 1008.66 1008.94 1009.23 1009.52 1009.82 1010.13 1010.44 1010.73 1011.02 1011.27 1011.48 1011.66 1011.78 1011.87 1011.92 1011.95 1011.97 1011.96 1011.94 1011.89 1011.80 1011.67 1011.49 1011.27 1011.02 1010.75 1010.47 1010.21 1009.97 1009.77 1009.60 1009.46 1009.35 1009.25 1009.16 1009.07 1008.98 1008.89
1007.28 1007.41 1007.58 1007.80 1008.05 1008.34 1008.66 1009.00 1009.36 1009.73 1010.09 1010.43 1010.74 1011.02 1011.26 1011.46 1011.62 1011.74 1011.84 1011.91 1011.96 1011.99 1012.00 1011.97 1011.91 1011.80 1011.63 1011.42 1011.17 1010.88 1010.57 1010.25 1009.95 1009.67 1009.42 1009.20 1009.01 1008.86 1008.72 1008.60 1008.48 1008.36 1008.24
1007.28 1007.36 1007.49 1007.66 1007.91 1008.21 1008.57 1008.98 1009.41 1009.84 1010.26 1010.63 1010.96 1011.23 1011.45 1011.62 1011.76 1011.87 1011.97 1012.05 1012.12 1012.16 1012.18 1012.15 1012.07 1011.93 1011.74 1011.49 1011.20 1010.87 1010.53 1010.17 1009.83 1009.50 1009.20 1008.93 1008.69 1008.48 1008.30 1008.13 1007.98 1007.83 1007.67
1007.47 1007.51 1007.59 1007.74 1007.97 1008.30 1008.70 1009.17 1009.67 1010.17 1010.63 1011.03 1011.36 1011.62 1011.81 1011.96 1012.07 1012.17 1012.27 1012.36 1012.43 1012.49 1012.50 1012.47 1012.37 1012.21 1011.98 1011.71 1011.38 1011.02 1010.64 1010.25 1009.87 1009.49 1009.13 1008.80 1008.51 1008.24 1008.01 1007.81 1007.61 1007.42 1007.22
1007.85 1007.85 1007.90 1008.02 1008.24 1008.58 1009.03 1009.55 1010.12 1010.67 1011.17 1011.59 1011.92 1012.15 1012.32 1012.44 1012.53 1012.61 1012.70 1012.79 1012.88 1012.93 1012.95 1012.91 1012.80 1012.62 1012.37 1012.06 1011.71 1011.33 1010.92 1010.50 1010.07 1009.64 1009.23 1008.85 1008.49 1008.17 1007.89 1007.63 1007.40 1007.16 1006.91
1008.35 1008.34 1008.35 1008.45 1008.67 1009.02 1009.50 1010.07 1010.68 1011.27 1011.80 1012.23 1012.55 1012.77 1012.90 1012.99 1013.06 1013.13 1013.22 1013.31 1013.40 1013.46 1013.48 1013.43 1013.31 1013.12 1012.86 1012.54 1012.17 1011.76 1011.33 1010.88 1010.41 1009.95 1009.48 1009.04 1008.62 1008.24 1007.90 1007.60 1007.32 1007.05 1006.76
1008.92 1008.89 1008.89 1008.98 1009.19 1009.56 1010.05 1010.65 1011.28 1011.90 1012.44 1012.87 1013.18 1013.38 1013.50 1013.56 1013.61 1013.67 1013.75 1013.85 1013.94 1014.01 1014.03 1013.99 1013.87 1013.67 1013.40 1013.08 1012.70 1012.29 1011.84 1011.36 1010.87 1010.35 1009.84 1009.34 1008.86 1008.42 1008.03 1007.67 1007.35 1007.04 1006.71
1009.48 1009.47 1009.46 1009.54 1009.76 1010.12 1010.63 1011.23 1011.88 1012.50 1013.04 1013.47 1013.76 1013.94 1014.04 1014.09 1014.12 1014.17 1014.25 1014.35 1014.45 1014.52 1014.55 1014.51 1014.40 1014.21 1013.95 1013.63 1013.25 1012.84 1012.38 1011.89 1011.36 1010.81 1010.25 1009.69 1009.15 1008.65 1008.20 1007.81 1007.44 1007.10 1006.74
1010.00 1010.01 1010.02 1010.11 1010.32 1010.68 1011.18 1011.78 1012.41 1013.03 1013.56 1013.97 1014.25 1014.42 1014.50 1014.54 1014.57 1014.61 1014.68 1014.78 1014.88 1014.96 1014.99 1014.96 1014.86 1014.68 1014.43 1014.12 1013.75 1013.34 1012.88 1012.38 1011.83 1011.25 1010.64 1010.03 1009.44 1008.89 1008.39 1007.94 1007.54 1007.16 1006.78
1010.46 1010.52 1010.56 1010.65 1010.86 1011.22 1011.70 1012.28 1012.90 1013.49 1014.00 1014.39 1014.66 1014.82 1014.89 1014.92 1014.94 1014.97 1015.04 1015.13 1015.22 1015.29 1015.32 1015.29 1015.20 1015.03 1014.79 1014.50 1014.14 1013.74 1013.29 1012.77 1012.21 1011.60 1010.96 1010.31 1009.67 1009.07 1008.52 1008.03 1007.59 1007.18 1006.77
1010.87 1010.99 1011.07 1011.19 1011.40 1011.74 1012.20 1012.75 1013.33 1013.89 1014.38 1014.75 1015.01 1015.15 1015.22 1015.24 1015.25 1015.28 1015.33 1015.40 1015.47 1015.52 1015.54 1015.50 1015.40 1015.24 1015.01 1014.73 1014.39 1013.99 1013.54 1013.03 1012.46 1011.84 1011.17 1010.49 1009.81 1009.17 1008.57 1008.04 1007.56 1007.13 1006.70
1011.25 1011.43 1011.56 1011.71 1011.93 1012.26 1012.69 1013.20 1013.74 1014.27 1014.72 1015.08 1015.32 1015.46 1015.52 1015.54 1015.54 1015.55 1015.57 1015.61 1015.65 1015.67 1015.66 1015.60 1015.48 1015.31 1015.08 1014.80 1014.47 1014.09 1013.65 1013.14 1012.57 1011.94 1011.26 1010.56 1009.86 1009.18 1008.55 1007.98 1007.46 1006.99 1006.54
Thickness
5775 5773 5768 5763 5759 5756 5752 5750 5747 5745 5743 5743 5743 5743 5742 5742 5741 5741 5739 5739 5738 5738 5739 5739 5740 5740 5739 5739 5738 5736 5735 5733 5731 5729 5728 5727 5726 5725 5724 5722 5721 5720 5719
5776 5770 5764 5760 5756 5753 5749 5746 5743 5741 5739 5739 5739 5738 5738 5738 5738 5737 5736 5735 5735 5735 5735 5735 5735 5735 5735 5734 5733 5732 5731 5730 5728 5727 5726 5726 5725 5724 5722 5721 5719 5717 5717
5773 5767 5761 5757 5753 5750 5747 5744 5741 5738 5736 5735 5735 5735 5734 5734 5734 5734 5733 5732 5732 5731 5730 5730 5730 5730 5729 5729 5729 5728 5727 5726 5725 5724 5724 5725 5725 5724 5722 5720 5718 5717 5716
5771 5764 5760 5755 5751 5748 5745 5741 5739 5736 5734 5733 5732 5732 5732 5731 5731 5731 5730 5729 5728 5727 5726 5726 5725 5725 5725 5724 5724 5723 5723 5722 5721 5721 5721 5723 5725 5723 5721 5719 5718 5716 5715
5768 5764 5759 5753 5749 5746 5743 5740 5737 5735 5733 5731 5730 5729 5729 5728 5728 5728 5727 5726 5724 5723 5722 5722 5721 5720 5720 5720 5719 5719 5719 5719 5718 5717 5718 5720 5721 5720 5719 5717 5715 5715 5714
5764 5762 5755 5751 5747 5744 5741 5738 5735 5733 5731 5729 5728 5727 5726 5726 5726 5725 5723 5722 5721 5720 5719 5719 5718 5717 5717 5716 5716 5716 5716 5715 5714 5715 5716 5717 5717 5716 5716 5714 5712 5711 5711
5762 5759 5753 5749 5746 5743 5740 5737 5734 5732 5729 5727 5726 5725 5724 5724 5724 5723 5721 5719 5718 5717 5717 5717 5716 5716 5715 5714 5714 5713 5712 5711 5711 5712 5713 5714 5713 5713 5712 5711 5710 5708 5707
5759 5757 5750 5747 5744 5741 5739 5736 5733 5730 5728 5725 5723 5722 5721 5720 5721 5720 5718 5716 5715 5715 5714 5714 5713 5713 5712 5711 5710 5709 5708 5707 5707 5708 5709 5710 5710 5709 5708 5706 5705 5704 5704
5756 5754 5748 5745 5741 5739 5737 5734 5731 5728 5726 5723 5721 5719 5717 5716 5716 5715 5714 5713 5713 5712 5711 5710 5709 5708 5707 5707 5706 5705 5704 5703 5703 5703 5703 5705 5705 5705 5704 5702 5700 5700 5699
5751 5751 5748 5744 5741 5738 5735 5732 5729 5726 5723 5721 5719 5716 5714 5713 5712 5711 5711 5710 5709 5707 5706 5705 5705 5704 5703 5703 5703 5703 5702 5701 5700 5700 5700 5700 5700 5700 5698 5697 5695 5694 5694
5745 5747 5747 5746 5743 5740 5736 5732 5728 5725 5722 5719 5717 5715 5712 5711 5710 5709 5706 5705 5704 5703 5702 5701 5701 5701 5700 5700 5700 5701 5700 5698 5697 5697 5697 5696 5695 5693 5691 5690 5688 5687 5687
5738 5742 5744 5745 5743 5741 5738 5732 5728 5725 5721 5718 5716 5715 5711 5710 5709 5706 5703 5702 5701 5699 5698 5698 5697 5697 5697 5696 5697 5698 5695 5694 5693 5693 5692 5691 5689 5687 5685 5684 5682 5681 5681
5742 5742 5743 5742 5741 5739 5736 5733 5729 5726 5722 5719 5717 5715 5712 5710 5707 5705 5702 5700 5698 5697 5695 5695 5694 5693 5693 5693 5693 5693 5691 5690 5689 5689 5688 5686 5684 5683 5681 5680 5678 5677 5677
5743 5742 5742 5741 5739 5737 5735 5731 5729 5725 5722 5719 5716 5713 5710 5707 5703 5701 5699 5698 5695 5694 5692 5690 5689 5688 5688 5688 5688 5687 5686 5686 5685 5685 5684 5683 5682 5680 5679 5677 5676 5675 5674
5740 5740 5740 5739 5736 5734 5731 5729 5726 5723 5721 5717 5713 5708 5705 5702 5699 5697 5695 5693 5691 5689 5687 5685 5683 5682 5682 5681 5681 5680 5679 5678 5679 5679 5679 5680 5679 5677 5675 5674 5673 5672 5671
5737 5738 5738 5736 5735 5732 5727 5724 5722 5720 5716 5713 5709 5704 5700 5697 5694 5691 5688 5686 5684 5682 5680 5678 5676 5674 5673 5673 5672 5672 5671 5672 5672 5673 5672 5673 5673 5672 5671 5669 5668 5666 5665
5730 5733 5733 5733 5732 5729 5725 5721 5719 5715 5712 5707 5702 5698 5694 5691 5688 5685 5681 5677 5675 5673 5671 5669 5667 5666 5664 5664 5664 5664 5664 5664 5665 5665 5665 5666 5666 5666 5665 5663 5661 5660 5658
5725 5726 5727 5728 5727 5725 5722 5718 5714 5709 5705 5699 5694 5690 5687 5684 5681 5677 5672 5668 5666 5663 5660 5658 5656 5654 5653 5652 5653 5654 5655 5656 5657 5657 5658 5658 5658 5657 5656 5654 5653 5651 5650
5720 5720 5721 5723 5722 5719 5715 5710 5705 5699 5693 5688 5683 5680 5676 5673 5670 5666 5661 5657 5655 5652 5648 5646 5644 5642 5641 5641 5643 5644 5645 5646 5647 5647 5647 5646 5645 5643 5642 5640 5638 5637 5637
5714 5715 5716 5716 5714 5710 5705 5698 5691 5685 5679 5675 5671 5668 5665 5661 5658 5655 5650 5646 5643 5640 5636 5634 5631 5630 5629 5629 5631 5633 5634 5637 5636 5634 5633 5632 5631 5629 5627 5625 5622 5620 5619
5705 5707 5707 5706 5704 5699 5692 5685 5678 5671 5666 5662 5659 5656 5653 5650 5646 5642 5638 5634 5631 5628 5624 5622 5620 5618 5616 5616 5616 5618 5623 5626 5624 5621 5618 5615 5613 5612 5609 5606 5603 5601 5599
5695 5697 5698 5696 5693 5689 5683 5677 5670 5663 5656 5652 5648 5645 5641 5638 5634 5630 5626 5622 5619 5616 5612 5609 5606 5604 5602 5600 5597 5598 5602 5608 5609 5603 5601 5599 5596 5594 5591 5588 5585 5582 5580
5684 5686 5687 5685 5682 5677 5673 5667 5661 5655 5648 5643 5638 5634 5630 5626 5622 5619 5615 5611 5607 5603 5599 5596 5593 5590 5586 5585 5581 5576 5572 5574 5581 5589 5586 5582 5580 5575 5571 5568 5566 5563 5559
5674 5676 5676 5674 5670 5667 5664 5659 5652 5645 5638 5633 5629 5625 5620 5616 5612 5608 5604 5600 5596 5591 5587 5583 5580 5576 5572 5568 5566 5561 5553 5551 5550 5559 5563 5561 5557 5554 5550 5547 5543 5538 5534
5665 5665 5664 5662 5660 5657 5653 5648 5642 5635 5629 5624 5620 5616 5611 5606 5601 5597 5593 5589 5585 5580 5575 5571 5567 5562 5557 5552 5547 5543 5540 5535 5530 5529 5537 5539 5535 5530 5526 5521 5516 5511 5506
5656 5654 5652 5650 5647 5644 5640 5635 5630 5624 5619 5613 5608 5604 5600 5595 5590 5586 5583 5579 5574 5569 5564 5559 5554 5548 5543 5537 5531 5525 5519 5514 5509 5506 5510 5517 5517 5513 5505 5497 5489 5483 5475